Location: Sternwarte Stuttgart
(48.7670°N, 9.1830°E)
Time: 16:35:43
(UTC+01:00)

Cosmos 1943 Rocket - Pass Details

Date: 24 January 2019
Orbit: 811 x 845 km, 71.0° (Epoch: 18 February)

Event Time Altitude Azimuth Distance (km) Brightness Sun altitude
Exits shadow 05:19:22 46° 351° (N) 1,089 2.6 -26.8°
Drops below altitude 10° 05:23:34 10° 22° (NNE) 2,431 4.8 -26.1°
Sets 05:26:04 0° 27° (NNE) 3,373 5.7 -25.7°
